User: anonymous   Login
Location: S�deilles
(46.7500°N, 6.9329°E)
Time: 23:46:45
(UTC+00:00)
Language:

Cosmos 2219 Rocket - Orbit

View from above orbital plane
View from above orbital plane
View from above satellite
View from above satellite

Ground track
Ground track

The orbit data is extracted from the following two-line orbital elements,

1 22220U 92076B   21129.55039608 -.00000058  00000-0 -51251-5 0  9997
2 22220  70.9991 305.1237 0015047 265.7890 151.4299 14.16467606471857
Epoch (UTC): 09 May 2021 13:12:34
Eccentricity: 0.0015047
inclination: 70.9991°
perigee height: 826 km
apogee height: 848 km
right ascension of ascending node: 305.1237°
argument of perigee: 265.7890°
revolutions per day: 14.16467606
mean anomaly at epoch: 151.4299°
orbit number at epoch: 47185

The dashed part of the orbit path shows where the satellite is in the earth's shadow,  

DLR